STARLING 4

Satellite information

Favourite Embed

Satellite Type and Status

PAYLOADIN ORBIT

Key statistics

Satellite STARLING 4 at a glance.

Uptime

880

Days in orbit

Revolutions

≈ 15.1

Per day

Orbit

SSO

Sun Synchronous Orbit

Inclination

99.5

Latest

Satellite identification and parameters

Extended collection of information and parameters for STARLING 4.

Object identification

Identified? True

Debris? False

Object name: STARLING 4

International designator: 2023-100A

Object number (NORAD): 57386

Object ID (CCSDS): 57386

Country: UNITED STATES OF AMERICA (US)

Current information (Y/N): Y

RCS size: MEDIUM

Orbital parameters

Period: 95.65 minutes

Inclination: 99.5018 deg

SMA: 6928.158 km

Apoapsis: 554.842 km

Periapsis: 545.205 km

RAAN: 315.7 deg

Eccentricy: 0.0006955

Argument of periapsis: 8.1667 deg

Mean anomaly: 351.9665 deg

Mean motion: 15.05483647 rev/day

Mean motion (dot): 0.0000341 rev/day2

B* drag term: 0.00024328 1/REarth

Two-line elements (TLE)

Creation date: Dec. 12, 2025, 10:26 a.m.

Reference frame: TEME

Reference center: EARTH

Epoch: Dec. 12, 2025, 7:20 a.m. UTC

TLE line 0: 0 STARLING 4

TLE line 1: 1 57386U 23100A 25346.30623008 .00003410 00000-0 24328-3 0 9997

TLE line 2: 2 57386 99.5018 315.7000 0006955 8.1667 351.9665 15.05483647131779

Live tracking on map

Real-time ground track for satellite STARLING 4.

In-orbit conjunctions

There are no conjunctions computed for STARLING 4, at the moment. Check back to stay up to date, as we update our databases every day.

Go to all conjunctions

Associated space launch

The "Baby Come Back" mission includes NASA's Starling project, which consists of four CubeSats designed to test technologies for future swarm missions. Telesat contributes the LEO 3 demonstration satellite, ensuring continuity for customers and ecosystem vendor testing. Additionally, two 3U satellites carrying GNSS-RO payloads from SpinGlobal will replenish their constellation of over 100 multipurpose satellites.

STARLING 4 was lifted into orbit during the mission ‘Electron | Baby Come Back (Rideshare)’, on board a Electron space rocket.

The launch took place on July 18, 2023, 1:27 a.m. from Rocket Lab Launch Complex 1B.

For more information about the launch, click the button.

Launch to space Electron | Baby Come Back (Rideshare)
Electron | Baby Come Back (Rideshare)

Agency: N/A

Status: Launch Successful

Launch date: July 18, 2023, 1:27 a.m. UTC

Rocket: Electron

Launch pad: Rocket Lab Launch Complex 1B

Location: Rocket Lab Launch Complex 1, Mahia Peninsula, New Zealand

...

Latest news about this satellite

News about space launch
Making multiple breakthroughs in spacecraft swarms

Each year, SpaceNews selects the people, programs and technologies that have most influenced the direction of the space industry in the past year. Started in 2017, our annual celebration recognizes outsized achievements in a business in which no ambition ...

News about space launch
NASA boosts science objectives for Starling swarm

NASA is expanding testing of distributed autonomy for its first satellite swarm, Starling. The post NASA boosts science objectives for Starling swarm appeared first on SpaceNews.

News about space launch
Launch Roundup: Rocket Lab conducts Electron reuse attempt, SpaceX flies two Starlink v2 missions

The week of July 16 through July 23 saw four more launches take place around the world, potentially increasing the orbital launch count to 108 so far in 2023. This included Rocket Lab’s launch of the “Baby Come Back” mission (which featured a first stage ...


Newsletter sign-up

Weekly statistics, charts and insights to help you stay on top of the space industry.